Volver al catálogo

ARIANE 3 DEB

LostGTO
NORAD 26806·DEBRIS·🇫🇷 France

Lanzado Sep 8, 1988 desde Guiana Space Centre

Loading…

TLE

ObsoletoSource: Space-Track

Época: Jul 4, 2025, 10:22 UTC

1 26806U 88081G   25185.43249649 -.00000114  00000-0  00000-0 0  9996
2 26806   5.8091  95.3862 7042266 149.8965 322.2564  2.17435847198293

Sigue ARIANE 3 DEB en tiempo real con AllMySat

Download on the App Store